Weather History for KTIF - August, 2013

Change the Weather History Date:

Sunday, August 18, 2013

  Actual Average (KLBF) Record (KLBF)
Temperature  
Mean Temperature 72 °F 72 °F  
Max Temperature 81 °F 86 °F 102 °F (1970)
Min Temperature 64 °F 58 °F 44 °F (1978)
Degree Days  
Heating Degree Days 0 0  
Month to date heating degree days 0  
Since 1 June heating degree days 56  
Since 1 July heating degree days 5  
Cooling Degree Days 7 7  
Month to date cooling degree days 154  
Year to date cooling degree days 613  
Since 1 June cooling degree days 585  
Growing Degree Days 22 (Base 50)    
Moisture  
Dew Point 63 °F    
Average Humidity 73    
Maximum Humidity 89    
Minimum Humidity 56    
Precipitation  
Precipitation 0.00 in 0.06 in 1.34 in (1963)
Month to date precipitation 1.56  
Year to date precipitation 15.49  
Snow  
Snow 0.00 in 0.00 in 0.00 in (2002)
Month to date snowfall 0.0  
Since 1 June snowfall 0.0  
Since 1 July snowfall 0.0  
Snow Depth -    
Sea Level Pressure  
Sea Level Pressure 30.07 in    
Wind  
Wind Speed 11 mph (South)    
Max Wind Speed 22 mph    
Max Gust Speed 26 mph    
Visibility 10 miles    
Events      
T = Trace of Precipitation, MM = Missing Value Source: NWS Daily Summary

Daily Weather History Graph

Daily Weather History Graph

Search for Another Location

Airport or City:

Trip Planner

Search our weather history database for the weather conditions in past years. The results will help you decide how hot, cold, wet, or windy it might be!

Date:

Astronomy

Aug. 18, 2013 Rise Set
Actual Time 6:53 AM CDT 8:37 PM CDT
Civil Twilight 6:23 AM CDT 9:07 PM CDT
Nautical Twilight 5:47 AM CDT 9:43 PM CDT
Astronomical Twilight 5:08 AM CDT 10:21 PM CDT
Moon 6:46 PM CDT (8/18) 4:03 AM CDT (8/18)
Length of Visible Light 14h 43m
Length of Day
13h 44m
Waxing Gibbous, 92% of the Moon is Illuminated
Aug 18
Waxing Gibbous
Aug 20
Full
Aug 28
Last Quarter
Sep 5
New
Sep 12
First Quarter

Hourly Weather History & Observations

Time (CDT) Temp. Heat Index Dew Point Humidity Pressure Visibility Wind Dir Wind Speed Gust Speed Precip Events Conditions
12:15 AM 67.1 °F - 62.6 °F 85% 30.10 in 10.0 mi SSE 10.4 mph - N/A   Clear
12:35 AM 66.9 °F - 62.6 °F 86% 30.10 in 10.0 mi South 10.4 mph - N/A   Clear
12:55 AM 66.9 °F - 62.2 °F 85% 30.10 in 10.0 mi SSE 10.4 mph - N/A   Clear
1:15 AM 66.7 °F - 62.1 °F 85% 30.10 in 10.0 mi South 10.4 mph 16.1 mph N/A   Clear
1:35 AM 66.6 °F - 61.9 °F 85% 30.09 in 10.0 mi South 11.5 mph 16.1 mph N/A   Clear
1:55 AM 67.1 °F - 61.9 °F 83% 30.09 in 10.0 mi South 15.0 mph 18.4 mph N/A   Clear
2:15 AM 66.7 °F - 61.7 °F 84% 30.09 in 10.0 mi South 12.7 mph 17.3 mph N/A   Clear
2:35 AM 66.2 °F - 61.7 °F 85% 30.08 in 10.0 mi SSE 11.5 mph - N/A   Clear
2:55 AM 65.8 °F - 61.7 °F 86% 30.08 in 10.0 mi South 11.5 mph - N/A   Clear
3:15 AM 65.5 °F - 61.7 °F 88% 30.08 in 10.0 mi South 11.5 mph - N/A   Clear
3:35 AM 65.3 °F - 61.3 °F 87% 30.07 in 10.0 mi South 9.2 mph - N/A   Clear
3:55 AM 64.9 °F - 61.3 °F 88% 30.07 in 10.0 mi SSE 10.4 mph - N/A   Clear
4:15 AM 64.9 °F - 61.2 °F 88% 30.08 in 10.0 mi South 8.1 mph - N/A   Clear
4:35 AM 64.9 °F - 61.2 °F 88% 30.08 in 10.0 mi South 6.9 mph - N/A   Scattered Clouds
4:55 AM 64.8 °F - 61.2 °F 88% 30.08 in 10.0 mi South 8.1 mph - N/A   Mostly Cloudy
5:15 AM 64.8 °F - 61.2 °F 88% 30.07 in 7.0 mi South 9.2 mph - N/A   Mostly Cloudy
5:35 AM 64.4 °F - 60.8 °F 88% 30.07 in 7.0 mi South 8.1 mph - N/A   Scattered Clouds
5:55 AM 64.4 °F - 61.2 °F 89% 30.07 in 7.0 mi SSE 8.1 mph - N/A   Mostly Cloudy
6:15 AM 64.8 °F - 61.2 °F 88% 30.07 in 7.0 mi South 10.4 mph - N/A   Overcast
6:35 AM 64.8 °F - 61.2 °F 88% 30.07 in 7.0 mi South 6.9 mph - N/A   Overcast
6:55 AM 64.9 °F - 61.2 °F 88% 30.08 in 7.0 mi South 8.1 mph - N/A   Overcast
7:15 AM 64.9 °F - 61.3 °F 88% 30.08 in 7.0 mi South 8.1 mph - N/A   Overcast
7:35 AM 65.3 °F - 61.5 °F 88% 30.08 in 7.0 mi South 8.1 mph - N/A   Overcast
7:55 AM 65.8 °F - 61.7 °F 86% 30.08 in 7.0 mi South 10.4 mph - N/A   Overcast
8:15 AM 66.2 °F - 61.7 °F 85% 30.08 in 7.0 mi South 11.5 mph 17.3 mph N/A   Overcast
8:35 AM 66.7 °F - 61.9 °F 84% 30.08 in 7.0 mi South 10.4 mph - N/A   Overcast
8:55 AM 67.3 °F - 62.2 °F 84% 30.09 in 7.0 mi South 10.4 mph - N/A   Overcast
9:15 AM 68.0 °F - 62.2 °F 82% 30.08 in 7.0 mi SSW 16.1 mph 21.9 mph N/A   Overcast
9:35 AM 68.5 °F - 62.2 °F 80% 30.09 in 10.0 mi SSW 13.8 mph 19.6 mph N/A   Overcast
9:55 AM 69.8 °F - 62.4 °F 77% 30.08 in 10.0 mi South 13.8 mph 19.6 mph N/A   Mostly Cloudy
10:15 AM 71.1 °F - 62.2 °F 74% 30.08 in 10.0 mi South 13.8 mph - N/A   Scattered Clouds
10:35 AM 72.1 °F - 62.4 °F 71% 30.07 in 10.0 mi South 15.0 mph - N/A   Scattered Clouds
10:55 AM 73.9 °F - 62.4 °F 67% 30.07 in 10.0 mi South 15.0 mph 18.4 mph N/A   Clear
11:15 AM 74.8 °F - 62.2 °F 65% 30.07 in 10.0 mi South 16.1 mph - N/A   Clear
11:35 AM 76.1 °F - 62.8 °F 63% 30.07 in 10.0 mi South 15.0 mph 19.6 mph N/A   Scattered Clouds
11:55 AM 76.1 °F - 62.6 °F 63% 30.07 in 10.0 mi SSW 13.8 mph 21.9 mph N/A   Scattered Clouds
12:15 PM 75.4 °F - 62.8 °F 65% 30.08 in 10.0 mi SSW 16.1 mph - N/A   Scattered Clouds
12:35 PM 76.6 °F - 63.0 °F 62% 30.07 in 10.0 mi South 16.1 mph 20.7 mph N/A   Scattered Clouds
12:55 PM 77.5 °F - 63.3 °F 61% 30.07 in 10.0 mi South 15.0 mph 24.2 mph N/A   Clear
1:15 PM 78.4 °F - 63.7 °F 60% 30.06 in 10.0 mi South 15.0 mph 21.9 mph N/A   Clear
1:35 PM 78.4 °F - 63.5 °F 60% 30.05 in 10.0 mi South 17.3 mph 23.0 mph N/A   Clear
1:55 PM 79.2 °F - 64.0 °F 60% 30.05 in 10.0 mi South 15.0 mph 24.2 mph N/A   Clear
2:15 PM 79.0 °F - 63.5 °F 59% 30.04 in 10.0 mi South 15.0 mph 26.5 mph N/A   Clear
2:35 PM 78.8 °F - 63.3 °F 59% 30.05 in 10.0 mi South 15.0 mph 25.3 mph N/A   Clear
2:55 PM 78.6 °F - 63.1 °F 59% 30.04 in 10.0 mi South 18.4 mph 25.3 mph N/A   Clear
3:15 PM 79.3 °F - 63.0 °F 57% 30.04 in 10.0 mi SSE 21.9 mph 26.5 mph N/A   Clear
3:35 PM 80.1 °F 81.6 °F 63.5 °F 57% 30.04 in 10.0 mi South 16.1 mph 24.2 mph N/A   Clear
3:55 PM 80.1 °F 81.5 °F 63.3 °F 56% 30.04 in 10.0 mi South 15.0 mph - N/A   Clear
4:15 PM 80.6 °F 82.0 °F 63.7 °F 56% 30.04 in 10.0 mi South 15.0 mph 20.7 mph N/A   Clear
4:35 PM 80.4 °F 82.0 °F 63.7 °F 57% 30.05 in 10.0 mi South 9.2 mph 18.4 mph N/A   Scattered Clouds
4:55 PM 80.2 °F 81.8 °F 63.7 °F 57% 30.04 in 10.0 mi South 13.8 mph 17.3 mph N/A   Scattered Clouds
5:15 PM 79.9 °F - 63.5 °F 57% 30.04 in 10.0 mi SSW 13.8 mph - N/A   Clear
5:35 PM 79.7 °F - 63.0 °F 56% 30.04 in 10.0 mi South 12.7 mph 20.7 mph N/A   Clear
5:55 PM 79.0 °F - 63.3 °F 59% 30.04 in 10.0 mi South 11.5 mph - N/A   Clear
6:15 PM 78.6 °F - 63.0 °F 59% 30.05 in 10.0 mi South 10.4 mph - N/A   Clear
6:35 PM 78.1 °F - 62.8 °F 59% 30.05 in 10.0 mi South 11.5 mph - N/A   Clear
6:55 PM 77.7 °F - 63.0 °F 60% 30.05 in 10.0 mi South 9.2 mph - N/A   Clear
7:15 PM 77.4 °F - 63.0 °F 61% 30.05 in 10.0 mi SSE 10.4 mph - N/A   Clear
7:35 PM 76.8 °F - 63.0 °F 62% 30.05 in 10.0 mi SSE 8.1 mph - N/A   Clear
7:55 PM 75.4 °F - 63.5 °F 66% 30.05 in 10.0 mi SSE 6.9 mph - N/A   Clear
8:15 PM 73.8 °F - 63.5 °F 70% 30.04 in 10.0 mi SSE 6.9 mph - N/A   Clear
8:35 PM 72.7 °F - 63.7 °F 73% 30.04 in 10.0 mi SSE 8.1 mph - N/A   Clear
8:55 PM 71.6 °F - 63.9 °F 76% 30.04 in 10.0 mi SSE 8.1 mph - N/A   Clear
9:15 PM 71.2 °F - 63.5 °F 76% 30.07 in 10.0 mi SSE 8.1 mph - N/A   Clear
9:35 PM 71.6 °F - 63.7 °F 76% 30.07 in 10.0 mi SSE 11.5 mph - N/A   Clear
9:55 PM 72.0 °F - 63.5 °F 75% 30.07 in 10.0 mi SSE 10.4 mph - N/A   Clear
10:15 PM 72.0 °F - 63.5 °F 75% 30.07 in 10.0 mi SSE 15.0 mph - N/A   Clear
10:35 PM 71.8 °F - 63.1 °F 74% 30.08 in 10.0 mi South 8.1 mph - N/A   Clear
10:55 PM 71.8 °F - 62.8 °F 73% 30.07 in 10.0 mi South 10.4 mph 20.7 mph N/A   Clear
11:15 PM 71.6 °F - 62.8 °F 74% 30.06 in 10.0 mi South 12.7 mph - N/A   Clear
11:35 PM 71.6 °F - 62.6 °F 73% 30.05 in 10.0 mi South 11.5 mph - N/A   Clear
11:55 PM 71.6 °F - 62.6 °F 73% 30.04 in 10.0 mi South 11.5 mph - N/A   Clear